| time (UTC) | temp F | wind direction | speed MPH | gust MPH | rain 1hr in | rain 24hr in | rain mn in | humidity % | barometer mb |
| 20260905234541 | 70 | 49 | 1.0 | 5.0 | 0.00 | 0.00 | 0.00 | 86 | 1018.4 |
| 20260905234018 | 70 | 79 | 2.0 | 5.0 | 0.00 | 0.00 | 0.00 | 86 | 1018.4 |
| 20260905233516 | 70 | 30 | 2.0 | 5.0 | 0.00 | 0.00 | 0.00 | 86 | 1018.4 |
| 20260905233040 | 70 | 88 | 2.0 | 4.0 | 0.00 | 0.00 | 0.00 | 86 | 1018.2 |
| 20260905232519 | 70 | 86 | 1.0 | 4.0 | 0.00 | 0.00 | 0.00 | 86 | 1018.1 |
| 20260905232022 | 70 | 5 | 0.0 | 4.0 | 0.00 | 0.00 | 0.00 | 87 | 1018.2 |
| 20260905231544 | 70 | 13 | 1.0 | 5.0 | 0.00 | 0.00 | 0.00 | 87 | 1018.2 |
| 20260905231018 | 70 | 59 | 2.0 | 5.0 | 0.00 | 0.00 | 0.00 | 86 | 1018.1 |
| 20260905230518 | 70 | 46 | 3.0 | 6.0 | 0.00 | 0.00 | 0.00 | 86 | 1018.1 |
| 20260905230047 | 70 | 72 | 1.0 | 6.0 | 0.00 | 0.00 | 0.00 | 86 | 1018.1 |
| 20260905225520 | 71 | 74 | 2.0 | 8.0 | 0.00 | 0.00 | 0.00 | 85 | 1018.1 |
| 20260905225018 | 71 | 51 | 3.0 | 8.0 | 0.00 | 0.00 | 0.00 | 85 | 1018.0 |
| 20260905224543 | 71 | 57 | 3.0 | 9.0 | 0.00 | 0.00 | 0.00 | 86 | 1017.9 |
| 20260905224017 | 71 | 17 | 4.0 | 11.0 | 0.00 | 0.00 | 0.00 | 87 | 1017.9 |
| 20260905223516 | 71 | 40 | 4.0 | 11.0 | 0.00 | 0.00 | 0.00 | 87 | 1017.8 |
| 20260905223043 | 71 | 38 | 5.0 | 10.0 | 0.00 | 0.00 | 0.00 | 87 | 1017.9 |
| 20260905222519 | 71 | 57 | 3.0 | 7.0 | 0.00 | 0.00 | 0.00 | 87 | 1018.0 |
| 20260905222020 | 71 | 21 | 2.0 | 6.0 | 0.00 | 0.00 | 0.00 | 88 | 1017.9 |
| 20260905221549 | 70 | 57 | 3.0 | 9.0 | 0.00 | 0.00 | 0.00 | 89 | 1017.9 |
| 20260905221022 | 70 | 54 | 4.0 | 9.0 | 0.00 | 0.00 | 0.00 | 89 | 1017.9 |
| 20260905220517 | 70 | 23 | 3.0 | 8.0 | 0.00 | 0.00 | 0.00 | 89 | 1017.7 |
| 20260905220035 | 70 | 39 | 3.0 | 5.0 | 0.00 | 0.00 | 0.00 | 89 | 1017.7 |
| 20260905215521 | 71 | 49 | 2.0 | 6.0 | 0.00 | 0.00 | 0.00 | 89 | 1017.9 |
| 20260905215019 | 70 | 48 | 3.0 | 7.0 | 0.00 | 0.00 | 0.00 | 89 | 1017.9 |
| 20260905214541 | 70 | 75 | 1.0 | 7.0 | 0.00 | 0.00 | 0.00 | 90 | 1017.8 |
| 20260905214017 | 70 | 86 | 2.0 | 7.0 | 0.00 | 0.00 | 0.00 | 90 | 1017.7 |
| 20260905213519 | 70 | 38 | 3.0 | 7.0 | 0.00 | 0.00 | 0.00 | 90 | 1017.7 |
| 20260905213051 | 70 | 77 | 2.0 | 7.0 | 0.00 | 0.00 | 0.00 | 90 | 1017.8 |
| 20260905212519 | 70 | 42 | 3.0 | 10.0 | 0.00 | 0.00 | 0.00 | 90 | 1017.9 |
| 20260905212019 | 70 | 54 | 3.0 | 10.0 | 0.00 | 0.00 | 0.00 | 90 | 1017.8 |
| 20260905211545 | 71 | 46 | 3.0 | 9.0 | 0.00 | 0.00 | 0.00 | 89 | 1017.9 |
| 20260905211019 | 71 | 71 | 2.0 | 6.0 | 0.00 | 0.00 | 0.00 | 89 | 1017.8 |
| 20260905210521 | 71 | 41 | 2.0 | 6.0 | 0.00 | 0.00 | 0.00 | 89 | 1017.8 |
| 20260905210039 | 71 | 24 | 2.0 | 6.0 | 0.00 | 0.00 | 0.00 | 89 | 1017.8 |
| 20260905205518 | 71 | 22 | 2.0 | 6.0 | 0.00 | 0.00 | 0.00 | 90 | 1017.8 |
| 20260905205018 | 71 | 71 | 3.0 | 6.0 | 0.00 | 0.00 | 0.00 | 89 | 1017.9 |
| 20260905204537 | 71 | 44 | 2.0 | 7.0 | 0.00 | 0.00 | 0.00 | 89 | 1017.8 |
| 20260905204020 | 71 | 38 | 3.0 | 7.0 | 0.00 | 0.00 | 0.00 | 89 | 1017.8 |
| 20260905203520 | 71 | 59 | 3.0 | 6.0 | 0.00 | 0.00 | 0.00 | 89 | 1017.7 |
| 20260905203052 | 71 | 77 | 2.0 | 6.0 | 0.00 | 0.00 | 0.00 | 89 | 1017.6 |
| 20260905202526 | 71 | 50 | 2.0 | 9.0 | 0.00 | 0.00 | 0.00 | 90 | 1017.6 |
| 20260905202018 | 71 | 76 | 3.0 | 9.0 | 0.00 | 0.00 | 0.00 | 89 | 1017.7 |
| 20260905201554 | 71 | 34 | 2.0 | 6.0 | 0.00 | 0.00 | 0.00 | 89 | 1017.7 |
| 20260905201019 | 71 | 107 | 1.0 | 6.0 | 0.00 | 0.00 | 0.00 | 90 | 1017.7 |
| 20260905200520 | 71 | 40 | 3.0 | 6.0 | 0.00 | 0.00 | 0.00 | 90 | 1017.7 |
| 20260905200039 | 71 | 78 | 3.0 | 6.0 | 0.00 | 0.00 | 0.00 | 90 | 1017.7 |
| 20260905195522 | 71 | 53 | 1.0 | 8.0 | 0.00 | 0.00 | 0.00 | 91 | 1017.7 |
| 20260905195021 | 71 | 82 | 2.0 | 8.0 | 0.00 | 0.00 | 0.00 | 92 | 1017.8 |
| 20260905194535 | 70 | 59 | 4.0 | 8.0 | 0.00 | 0.00 | 0.00 | 92 | 1017.8 |
| 20260905194019 | 70 | 41 | 3.0 | 6.0 | 0.00 | 0.00 | 0.00 | 93 | 1017.8 |
| 20260905193520 | 70 | 337 | 3.0 | 5.0 | 0.00 | 0.00 | 0.00 | 93 | 1017.9 |
| 20260905193037 | 70 | 44 | 2.0 | 10.0 | 0.00 | 0.00 | 0.00 | 93 | 1017.9 |
| 20260905192519 | 70 | 64 | 3.0 | 10.0 | 0.00 | 0.00 | 0.00 | 93 | 1017.9 |
| 20260905192019 | 70 | 17 | 4.0 | 10.0 | 0.00 | 0.00 | 0.00 | 93 | 1017.9 |
| 20260905191538 | 70 | 26 | 2.0 | 6.0 | 0.00 | 0.00 | 0.00 | 93 | 1017.9 |
| 20260905191021 | 70 | 34 | 2.0 | 11.0 | 0.00 | 0.00 | 0.00 | 93 | 1017.9 |
| 20260905190517 | 70 | 40 | 3.0 | 11.0 | 0.00 | 0.00 | 0.00 | 93 | 1017.8 |
| 20260905190038 | 70 | 53 | 3.0 | 9.0 | 0.00 | 0.00 | 0.00 | 93 | 1017.7 |
| 20260905185520 | 70 | 55 | 3.0 | 11.0 | 0.00 | 0.00 | 0.00 | 93 | 1017.8 |
| 20260905185020 | 70 | 360 | 5.0 | 11.0 | 0.00 | 0.00 | 0.00 | 93 | 1017.8 |
| 20260905184545 | 70 | 48 | 3.0 | 7.0 | 0.00 | 0.00 | 0.00 | 94 | 1017.8 |
| 20260905184019 | 70 | 103 | 2.0 | 8.0 | 0.00 | 0.00 | 0.00 | 94 | 1017.8 |
| 20260905183520 | 70 | 64 | 4.0 | 8.0 | 0.00 | 0.00 | 0.00 | 94 | 1017.9 |
| 20260905183041 | 70 | 46 | 3.0 | 7.0 | 0.00 | 0.00 | 0.00 | 94 | 1017.9 |
| 20260905182518 | 70 | 46 | 3.0 | 9.0 | 0.00 | 0.00 | 0.00 | 94 | 1017.9 |
| 20260905182016 | 70 | 44 | 4.0 | 9.0 | 0.00 | 0.00 | 0.00 | 93 | 1017.9 |
| 20260905181544 | 70 | 13 | 4.0 | 9.0 | 0.00 | 0.00 | 0.00 | 93 | 1017.9 |
| 20260905181018 | 70 | 38 | 2.0 | 6.0 | 0.00 | 0.00 | 0.00 | 93 | 1017.8 |
| 20260905180518 | 71 | 55 | 3.0 | 8.0 | 0.00 | 0.00 | 0.00 | 92 | 1017.8 |
| 20260905180048 | 71 | 62 | 3.0 | 8.0 | 0.00 | 0.00 | 0.00 | 92 | 1017.9 |
| 20260905175521 | 71 | 63 | 3.0 | 5.0 | 0.00 | 0.00 | 0.00 | 91 | 1017.9 |
| 20260905175020 | 72 | 43 | 2.0 | 5.0 | 0.00 | 0.00 | 0.00 | 91 | 1017.8 |
| 20260905174535 | 72 | 86 | 3.0 | 10.0 | 0.00 | 0.00 | 0.00 | 91 | 1017.7 |
| 20260905174019 | 72 | 130 | 3.0 | 10.0 | 0.00 | 0.00 | 0.00 | 91 | 1017.6 |
| 20260905173520 | 72 | 9 | 5.0 | 9.0 | 0.00 | 0.00 | 0.00 | 91 | 1017.7 |
| 20260905173039 | 72 | 42 | 3.0 | 11.0 | 0.00 | 0.00 | 0.00 | 91 | 1017.6 |
| 20260905172516 | 71 | 40 | 6.0 | 11.0 | 0.00 | 0.00 | 0.00 | 91 | 1017.6 |
| 20260905172022 | 72 | 9 | 4.0 | 10.0 | 0.00 | 0.00 | 0.00 | 90 | 1017.7 |
| 20260905171538 | 72 | 87 | 5.0 | 9.0 | 0.00 | 0.00 | 0.00 | 90 | 1017.7 |
| 20260905171020 | 72 | 55 | 5.0 | 9.0 | 0.00 | 0.00 | 0.00 | 90 | 1017.6 |
| 20260905170520 | 72 | 33 | 2.0 | 9.0 | 0.00 | 0.00 | 0.00 | 91 | 1017.6 |
| 20260905170047 | 72 | 345 | 5.0 | 9.0 | 0.00 | 0.00 | 0.00 | 91 | 1017.6 |
| 20260905165519 | 72 | 36 | 3.0 | 9.0 | 0.00 | 0.00 | 0.00 | 91 | 1017.6 |
| 20260905165017 | 72 | 9 | 4.0 | 10.0 | 0.00 | 0.00 | 0.00 | 91 | 1017.6 |
| 20260905164541 | 72 | 331 | 4.0 | 10.0 | 0.00 | 0.00 | 0.00 | 90 | 1017.6 |
| 20260905164023 | 73 | 352 | 3.0 | 8.0 | 0.00 | 0.00 | 0.00 | 88 | 1017.5 |
| 20260905163528 | 74 | 9 | 4.0 | 8.0 | 0.00 | 0.00 | 0.00 | 87 | 1017.6 |
| 20260905163044 | 74 | 32 | 3.0 | 8.0 | 0.00 | 0.00 | 0.00 | 87 | 1017.6 |
| 20260905162522 | 73 | 17 | 3.0 | 8.0 | 0.00 | 0.00 | 0.00 | 87 | 1017.6 |
| 20260905162018 | 73 | 51 | 3.0 | 7.0 | 0.00 | 0.00 | 0.00 | 87 | 1017.6 |
| 20260905161544 | 73 | 323 | 2.0 | 8.0 | 0.00 | 0.00 | 0.00 | 87 | 1017.6 |
| 20260905161026 | 73 | 53 | 3.0 | 8.0 | 0.00 | 0.00 | 0.00 | 87 | 1017.6 |
| 20260905160525 | 74 | 360 | 3.0 | 9.0 | 0.00 | 0.00 | 0.00 | 86 | 1017.6 |
| 20260905160040 | 73 | 9 | 3.0 | 9.0 | 0.00 | 0.00 | 0.00 | 87 | 1017.6 |
| 20260905155528 | 73 | 5 | 2.0 | 9.0 | 0.00 | 0.00 | 0.00 | 88 | 1017.6 |
| 20260905155022 | 73 | 69 | 4.0 | 9.0 | 0.00 | 0.00 | 0.00 | 87 | 1017.5 |
| 20260905154544 | 73 | 63 | 2.0 | 8.0 | 0.00 | 0.00 | 0.00 | 88 | 1017.4 |
| 20260905154022 | 72 | 13 | 3.0 | 8.0 | 0.00 | 0.00 | 0.00 | 89 | 1017.4 |
| 20260905153518 | 72 | 57 | 3.0 | 8.0 | 0.00 | 0.00 | 0.00 | 89 | 1017.4 |
| 20260905153041 | 72 | 52 | 2.0 | 10.0 | 0.00 | 0.00 | 0.00 | 89 | 1017.4 |
| 20260905152521 | 72 | 19 | 3.0 | 10.0 | 0.00 | 0.00 | 0.00 | 89 | 1017.3 |
| 20260905152020 | 72 | 37 | 3.0 | 9.0 | 0.00 | 0.00 | 0.00 | 89 | 1017.3 |
| 20260905151548 | 72 | 59 | 3.0 | 8.0 | 0.00 | 0.00 | 0.00 | 90 | 1017.2 |
| 20260905151020 | 72 | 10 | 4.0 | 8.0 | 0.00 | 0.00 | 0.00 | 90 | 1017.3 |
| 20260905150519 | 72 | 20 | 2.0 | 8.0 | 0.00 | 0.00 | 0.00 | 90 | 1017.2 |
| 20260905150048 | 72 | 64 | 3.0 | 8.0 | 0.00 | 0.00 | 0.00 | 90 | 1017.2 |
| 20260905145523 | 72 | 35 | 3.0 | 8.0 | 0.00 | 0.03 | 0.00 | 89 | 1017.2 |
| 20260905145019 | 72 | 13 | 3.0 | 8.0 | 0.00 | 0.03 | 0.00 | 90 | 1017.1 |
| 20260905144543 | 72 | 9 | 3.0 | 8.0 | 0.00 | 0.03 | 0.00 | 90 | 1017.0 |
| 20260905144021 | 72 | 44 | 2.0 | 9.0 | 0.00 | 0.03 | 0.00 | 90 | 1016.8 |
| 20260905143519 | 71 | 60 | 2.0 | 9.0 | 0.00 | 0.03 | 0.00 | 91 | 1016.9 |
| 20260905143042 | 71 | 13 | 5.0 | 9.0 | 0.00 | 0.03 | 0.00 | 90 | 1016.8 |
| 20260905142520 | 71 | 62 | 3.0 | 8.0 | 0.00 | 0.03 | 0.00 | 91 | 1016.7 |
| 20260905142030 | 71 | 35 | 4.0 | 8.0 | 0.00 | 0.03 | 0.00 | 91 | 1016.7 |
| 20260905141538 | 71 | 30 | 3.0 | 8.0 | 0.00 | 0.03 | 0.00 | 91 | 1016.7 |
| 20260905141018 | 71 | 65 | 3.0 | 9.0 | 0.00 | 0.03 | 0.00 | 91 | 1016.7 |
| 20260905140518 | 71 | 52 | 3.0 | 9.0 | 0.00 | 0.03 | 0.00 | 91 | 1016.6 |
| 20260905140047 | 71 | 26 | 2.0 | 9.0 | 0.00 | 0.03 | 0.00 | 91 | 1016.7 |
| 20260905135518 | 71 | 59 | 2.0 | 5.0 | 0.00 | 0.32 | 0.00 | 92 | 1016.7 |
| 20260905135019 | 71 | 348 | 2.0 | 5.0 | 0.00 | 0.32 | 0.00 | 92 | 1016.7 |
| 20260905134548 | 71 | 352 | 1.0 | 4.0 | 0.00 | 0.32 | 0.00 | 92 | 1016.8 |
| 20260905134019 | 70 | 5 | 1.0 | 5.0 | 0.00 | 0.32 | 0.00 | 93 | 1016.9 |
| 20260905133521 | 70 | 54 | 2.0 | 5.0 | 0.00 | 0.32 | 0.00 | 93 | 1016.8 |
| 20260905133037 | 70 | 29 | 2.0 | 5.0 | 0.00 | 0.32 | 0.00 | 93 | 1016.9 |
| 20260905132520 | 70 | 71 | 3.0 | 5.0 | 0.00 | 0.32 | 0.00 | 93 | 1017.1 |
| 20260905132021 | 70 | 352 | 2.0 | 7.0 | 0.00 | 0.32 | 0.00 | 93 | 1017.3 |
| 20260905131535 | 70 | 336 | 4.0 | 7.0 | 0.00 | 0.32 | 0.00 | 94 | 1017.2 |
| 20260905131024 | 70 | 325 | 2.0 | 5.0 | 0.00 | 0.32 | 0.00 | 94 | 1016.9 |
| 20260905130519 | 70 | 342 | 2.0 | 6.0 | 0.00 | 0.32 | 0.00 | 94 | 1016.7 |
| 20260905130042 | 70 | 43 | 2.0 | 7.0 | 0.00 | 0.32 | 0.00 | 94 | 1016.5 |
| 20260905125518 | 70 | 15 | 2.0 | 7.0 | 0.00 | 0.99 | 0.00 | 94 | 1016.4 |
| 20260905125018 | 70 | 60 | 1.0 | 4.0 | 0.00 | 0.99 | 0.00 | 95 | 1016.4 |
| 20260905124540 | 70 | 321 | 1.0 | 6.0 | 0.00 | 0.99 | 0.00 | 95 | 1016.2 |
| 20260905124022 | 70 | 44 | 1.0 | 7.0 | 0.00 | 0.99 | 0.00 | 95 | 1016.3 |
| 20260905123517 | 70 | 32 | 2.0 | 8.0 | 0.00 | 0.99 | 0.00 | 95 | 1016.2 |
| 20260905123040 | 70 | 39 | 4.0 | 10.0 | 0.00 | 0.99 | 0.00 | 95 | 1016.2 |
| 20260905122520 | 70 | 68 | 3.0 | 10.0 | 0.00 | 0.99 | 0.00 | 95 | 1016.1 |
| 20260905122021 | 70 | 26 | 3.0 | 9.0 | 0.00 | 0.99 | 0.00 | 95 | 1016.0 |
| 20260905121543 | 70 | 67 | 3.0 | 9.0 | 0.00 | 0.99 | 0.00 | 95 | 1015.9 |
| 20260905121021 | 70 | 49 | 1.0 | 5.0 | 0.00 | 0.99 | 0.00 | 95 | 1015.9 |
| 20260905120518 | 70 | 72 | 2.0 | 4.0 | 0.00 | 0.99 | 0.00 | 95 | 1015.9 |
| 20260905120040 | 70 | 61 | 1.0 | 6.0 | 0.00 | 0.99 | 0.00 | 95 | 1015.8 |
| 20260905115521 | 70 | 82 | 2.0 | 8.0 | 0.00 | 0.99 | 0.00 | 95 | 1015.8 |
| 20260905115017 | 70 | 38 | 2.0 | 8.0 | 0.00 | 0.99 | 0.00 | 95 | 1015.8 |
| 20260905114542 | 69 | 65 | 4.0 | 8.0 | 0.00 | 0.99 | 0.00 | 96 | 1015.7 |
| 20260905114018 | 69 | 30 | 3.0 | 6.0 | 0.00 | 0.99 | 0.00 | 96 | 1015.6 |
| 20260905113517 | 69 | 81 | 2.0 | 5.0 | 0.00 | 0.99 | 0.00 | 96 | 1015.5 |
| 20260905113041 | 69 | 360 | 1.0 | 8.0 | 0.00 | 0.99 | 0.00 | 96 | 1015.5 |
| 20260905112520 | 69 | 54 | 4.0 | 8.0 | 0.00 | 0.99 | 0.00 | 96 | 1015.4 |
| 20260905112018 | 69 | 44 | 2.0 | 9.0 | 0.00 | 0.99 | 0.00 | 96 | 1015.5 |
| 20260905111550 | 69 | 56 | 2.0 | 9.0 | 0.00 | 0.99 | 0.00 | 96 | 1015.3 |
| 20260905111020 | 69 | 37 | 4.0 | 7.0 | 0.00 | 0.99 | 0.00 | 96 | 1015.3 |
| 20260905110519 | 69 | 62 | 2.0 | 8.0 | 0.00 | 0.99 | 0.00 | 96 | 1015.3 |
| 20260905110046 | 69 | 38 | 3.0 | 8.0 | 0.00 | 0.99 | 0.00 | 96 | 1015.3 |
| 20260905105520 | 69 | 30 | 3.0 | 8.0 | 0.00 | 1.07 | 0.00 | 96 | 1015.3 |
| 20260905105016 | 69 | 73 | 4.0 | 11.0 | 0.00 | 1.07 | 0.00 | 96 | 1015.3 |
| 20260905104546 | 69 | 35 | 4.0 | 11.0 | 0.00 | 1.07 | 0.00 | 96 | 1015.3 |
| 20260905104023 | 69 | 55 | 5.0 | 11.0 | 0.00 | 1.07 | 0.00 | 96 | 1015.4 |
| 20260905103521 | 69 | 47 | 4.0 | 9.0 | 0.00 | 1.07 | 0.00 | 96 | 1015.4 |
| 20260905103038 | 69 | 64 | 4.0 | 9.0 | 0.00 | 1.07 | 0.00 | 96 | 1015.4 |
| 20260905102521 | 69 | 24 | 3.0 | 9.0 | 0.00 | 1.07 | 0.00 | 96 | 1015.3 |
| 20260905102020 | 69 | 36 | 3.0 | 6.0 | 0.00 | 1.07 | 0.00 | 96 | 1015.3 |
| 20260905101538 | 69 | 31 | 4.0 | 6.0 | 0.00 | 1.07 | 0.00 | 96 | 1015.3 |
| 20260905101019 | 69 | 59 | 2.0 | 9.0 | 0.00 | 1.07 | 0.00 | 96 | 1015.3 |
| 20260905100520 | 69 | 36 | 2.0 | 9.0 | 0.00 | 1.07 | 0.00 | 96 | 1015.3 |
| 20260905100043 | 69 | 38 | 4.0 | 9.0 | 0.00 | 1.07 | 0.00 | 96 | 1015.2 |
| 20260905095519 | 69 | 49 | 3.0 | 6.0 | 0.00 | 1.54 | 0.00 | 96 | 1015.2 |
| 20260905095026 | 69 | 29 | 3.0 | 5.0 | 0.00 | 1.54 | 0.00 | 96 | 1015.1 |
| 20260905094539 | 69 | 72 | 2.0 | 4.0 | 0.00 | 1.54 | 0.00 | 96 | 1015.1 |
| 20260905094024 | 69 | 44 | 1.0 | 4.0 | 0.00 | 1.54 | 0.00 | 96 | 1015.1 |
| 20260905093519 | 69 | 62 | 1.0 | 3.0 | 0.00 | 1.54 | 0.00 | 96 | 1015.1 |
| 20260905093039 | 69 | 348 | 1.0 | 4.0 | 0.00 | 1.54 | 0.00 | 96 | 1014.9 |
| 20260905092522 | 69 | 25 | 1.0 | 6.0 | 0.00 | 1.54 | 0.00 | 96 | 1014.9 |
| 20260905092025 | 69 | 57 | 2.0 | 6.0 | 0.00 | 1.54 | 0.00 | 96 | 1014.9 |
| 20260905091539 | 69 | 53 | 2.0 | 4.0 | 0.00 | 1.54 | 0.00 | 96 | 1014.7 |
| 20260905091021 | 69 | 80 | 2.0 | 4.0 | 0.00 | 1.54 | 0.00 | 96 | 1014.7 |
| 20260905090518 | 69 | 36 | 1.0 | 3.0 | 0.00 | 1.54 | 0.00 | 96 | 1014.6 |
| 20260905090108 | 69 | 48 | 1.0 | 3.0 | 0.00 | 1.54 | 0.00 | 96 | 1014.7 |
| 20260905085518 | 69 | 30 | 1.0 | 4.0 | 0.00 | 1.56 | 0.00 | 96 | 1014.7 |
| 20260905085019 | 69 | 56 | 1.0 | 5.0 | 0.00 | 1.56 | 0.00 | 96 | 1014.6 |
| 20260905084539 | 69 | 30 | 2.0 | 5.0 | 0.00 | 1.56 | 0.00 | 95 | 1014.6 |
| 20260905084021 | 69 | 63 | 2.0 | 4.0 | 0.00 | 1.56 | 0.00 | 96 | 1014.6 |
| 20260905083519 | 69 | 30 | 1.0 | 3.0 | 0.00 | 1.56 | 0.00 | 96 | 1014.6 |
| 20260905083044 | 69 | 39 | 2.0 | 3.0 | 0.00 | 1.56 | 0.00 | 96 | 1014.7 |
| 20260905082519 | 69 | 28 | 0.0 | 2.0 | 0.00 | 1.56 | 0.00 | 96 | 1014.7 |
| 20260905082021 | 69 | 32 | 0.0 | 3.0 | 0.00 | 1.56 | 0.00 | 96 | 1014.6 |
| 20260905081551 | 69 | 42 | 1.0 | 3.0 | 0.00 | 1.56 | 0.00 | 95 | 1014.6 |
| 20260905081021 | 69 | 53 | 1.0 | 3.0 | 0.00 | 1.56 | 0.00 | 96 | 1014.5 |
| 20260905080516 | 69 | 352 | 0.0 | 2.0 | 0.00 | 1.56 | 0.00 | 95 | 1014.6 |
| 20260905080037 | 69 | 31 | 0.0 | 2.0 | 0.00 | 1.56 | 0.00 | 95 | 1014.6 |
| 20260905075521 | 69 | 5 | 0.0 | 2.0 | 0.00 | 1.56 | 0.00 | 95 | 1014.6 |
| 20260905075019 | 69 | 345 | 0.0 | 3.0 | 0.00 | 1.56 | 0.00 | 95 | 1014.7 |
| 20260905074544 | 69 | 20 | 2.0 | 3.0 | 0.00 | 1.56 | 0.00 | 95 | 1014.7 |
| 20260905074020 | 69 | 346 | 1.0 | 2.0 | 0.00 | 1.56 | 0.00 | 95 | 1014.9 |
| 20260905073528 | 69 | 360 | 1.0 | 3.0 | 0.00 | 1.56 | 0.00 | 95 | 1014.9 |
| 20260905073042 | 69 | 9 | 1.0 | 3.0 | 0.00 | 1.56 | 0.00 | 95 | 1014.7 |
| 20260905072516 | 69 | 13 | 1.0 | 2.0 | 0.00 | 1.56 | 0.00 | 95 | 1014.8 |
| 20260905072018 | 69 | 31 | 1.0 | 3.0 | 0.00 | 1.56 | 0.00 | 95 | 1014.8 |
| 20260905071540 | 69 | 39 | 1.0 | 3.0 | 0.00 | 1.56 | 0.00 | 95 | 1014.9 |
| 20260905071018 | 69 | 46 | 1.0 | 3.0 | 0.00 | 1.56 | 0.00 | 95 | 1014.9 |
| 20260905070516 | 69 | 52 | 1.0 | 3.0 | 0.00 | 1.56 | 0.00 | 95 | 1014.8 |
| 20260905070046 | 69 | 32 | 1.0 | 4.0 | 0.00 | 1.56 | 0.00 | 95 | 1014.8 |
| 20260905065518 | 69 | 40 | 2.0 | 4.0 | 0.00 | 1.75 | 0.00 | 95 | 1014.8 |
| 20260905065020 | 69 | 350 | 1.0 | 3.0 | 0.00 | 1.75 | 0.00 | 95 | 1014.9 |
| 20260905064539 | 69 | 9 | 1.0 | 3.0 | 0.00 | 1.75 | 0.00 | 95 | 1014.8 |
| 20260905064024 | 69 | 18 | 2.0 | 3.0 | 0.00 | 1.75 | 0.00 | 95 | 1014.9 |
| 20260905063518 | 69 | 29 | 1.0 | 3.0 | 0.00 | 1.75 | 0.00 | 95 | 1014.9 |
| 20260905063042 | 69 | 9 | 1.0 | 3.0 | 0.00 | 1.75 | 0.00 | 95 | 1015.0 |
| 20260905062516 | 69 | 9 | 1.0 | 2.0 | 0.00 | 1.75 | 0.00 | 95 | 1015.0 |
| 20260905062018 | 69 | 15 | 0.0 | 2.0 | 0.00 | 1.75 | 0.00 | 95 | 1015.1 |
| 20260905061541 | 69 | 352 | 1.0 | 2.0 | 0.00 | 1.75 | 0.00 | 95 | 1015.1 |
| 20260905061016 | 69 | 28 | 0.0 | 2.0 | 0.00 | 1.75 | 0.00 | 95 | 1015.0 |
| 20260905060518 | 69 | 0 | 0.0 | 2.0 | 0.00 | 1.75 | 0.00 | 95 | 1015.0 |
| 20260905060039 | 69 | 0 | 0.0 | 2.0 | 0.00 | 1.75 | 0.00 | 95 | 1015.0 |
| 20260905055526 | 69 | 0 | 0.0 | 2.0 | 0.00 | 1.89 | 0.00 | 95 | 1015.0 |
| 20260905055020 | 69 | 348 | 0.0 | 2.0 | 0.00 | 1.89 | 0.00 | 95 | 1015.0 |
| 20260905054539 | 69 | 348 | 1.0 | 2.0 | 0.00 | 1.89 | 0.00 | 95 | 1015.1 |
| 20260905054019 | 69 | 29 | 2.0 | 3.0 | 0.00 | 1.89 | 0.00 | 95 | 1015.1 |
| 20260905053523 | 69 | 19 | 1.0 | 3.0 | 0.00 | 1.89 | 0.00 | 95 | 1015.2 |
| 20260905053036 | 69 | 360 | 2.0 | 3.0 | 0.00 | 1.89 | 0.00 | 95 | 1015.2 |
| 20260905052519 | 69 | 26 | 1.0 | 2.0 | 0.00 | 1.89 | 0.00 | 95 | 1015.1 |
| 20260905052018 | 69 | 360 | 1.0 | 4.0 | 0.00 | 1.89 | 0.00 | 95 | 1015.1 |
| 20260905051541 | 69 | 9 | 1.0 | 4.0 | 0.00 | 1.89 | 0.00 | 95 | 1015.0 |
| 20260905051019 | 69 | 40 | 2.0 | 4.0 | 0.00 | 1.89 | 0.00 | 95 | 1014.9 |
| 20260905050518 | 69 | 24 | 0.0 | 1.0 | 0.00 | 1.89 | 0.00 | 95 | 1014.9 |
| 20260905050037 | 69 | 57 | 0.0 | 2.0 | 0.00 | 1.89 | 0.00 | 95 | 1014.9 |
| 20260905045518 | 69 | 57 | 1.0 | 2.0 | 0.00 | 1.92 | 1.89 | 95 | 1014.9 |
| 20260905045021 | 69 | 49 | 0.0 | 2.0 | 0.00 | 1.92 | 1.89 | 95 | 1014.8 |
| 20260905044538 | 70 | 0 | 0.0 | 2.0 | 0.00 | 1.92 | 1.89 | 95 | 1014.8 |
| 20260905044018 | 70 | 171 | 1.0 | 2.0 | 0.00 | 1.92 | 1.89 | 95 | 1014.7 |
| 20260905043519 | 70 | 168 | 0.0 | 2.0 | 0.00 | 1.92 | 1.89 | 95 | 1014.7 |
| 20260905043035 | 69 | 36 | 1.0 | 2.0 | 0.00 | 1.92 | 1.89 | 95 | 1014.9 |
| 20260905042516 | 69 | 40 | 1.0 | 3.0 | 0.00 | 1.92 | 1.89 | 95 | 1014.9 |
| 20260905042018 | 70 | 0 | 0.0 | 3.0 | 0.00 | 1.92 | 1.89 | 95 | 1014.9 |
| 20260905041548 | 70 | 348 | 2.0 | 3.0 | 0.00 | 1.92 | 1.89 | 95 | 1015.0 |
| 20260905041016 | 70 | 28 | 2.0 | 3.0 | 0.00 | 1.92 | 1.89 | 94 | 1014.8 |
| 20260905040521 | 70 | 53 | 1.0 | 3.0 | 0.00 | 1.92 | 1.89 | 94 | 1014.6 |
| 20260905040040 | 70 | 181 | 1.0 | 2.0 | 0.00 | 1.92 | 1.89 | 94 | 1014.5 |
| 20260905035520 | 70 | 0 | 0.0 | 2.0 | 0.00 | 1.92 | 1.89 | 94 | 1014.7 |
| 20260905035019 | 70 | 181 | 0.0 | 2.0 | 0.00 | 1.92 | 1.89 | 94 | 1014.7 |
| 20260905034547 | 70 | 0 | 0.0 | 2.0 | 0.00 | 1.92 | 1.89 | 94 | 1014.7 |
| 20260905034019 | 70 | 178 | 1.0 | 2.0 | 0.00 | 1.92 | 1.89 | 94 | 1014.7 |
| 20260905033523 | 70 | 0 | 0.0 | 2.0 | 0.00 | 1.92 | 1.89 | 94 | 1015.0 |
| 20260905033037 | 70 | 96 | 0.0 | 2.0 | 0.00 | 1.92 | 1.89 | 94 | 1015.1 |
| 20260905032520 | 70 | 41 | 0.0 | 2.0 | 0.00 | 1.92 | 1.89 | 94 | 1015.1 |
| 20260905032021 | 70 | 65 | 0.0 | 2.0 | 0.00 | 1.92 | 1.89 | 94 | 1015.1 |
| 20260905031540 | 70 | 0 | 0.0 | 2.0 | 0.00 | 1.92 | 1.89 | 94 | 1015.1 |
| 20260905031019 | 70 | 0 | 0.0 | 2.0 | 0.00 | 1.92 | 1.89 | 94 | 1015.0 |
| 20260905030520 | 70 | 0 | 0.0 | 2.0 | 0.00 | 1.92 | 1.89 | 94 | 1015.1 |
| 20260905030037 | 70 | 65 | 0.0 | 2.0 | 0.00 | 1.92 | 1.89 | 94 | 1014.9 |
| 20260905025516 | 70 | 130 | 0.0 | 2.0 | 0.00 | 1.92 | 1.89 | 94 | 1014.9 |
| 20260905025019 | 70 | 0 | 1.0 | 2.0 | 0.00 | 1.92 | 1.89 | 94 | 1014.7 |
| 20260905024540 | 70 | 113 | 0.0 | 2.0 | 0.00 | 1.92 | 1.89 | 94 | 1014.7 |
| 20260905024018 | 70 | 37 | 0.0 | 2.0 | 0.00 | 1.92 | 1.89 | 94 | 1015.0 |
| 20260905023518 | 70 | 42 | 1.0 | 2.0 | 0.00 | 1.92 | 1.89 | 93 | 1014.9 |
| 20260905023039 | 70 | 0 | 0.0 | 2.0 | 0.00 | 1.92 | 1.89 | 93 | 1014.9 |
| 20260905022517 | 70 | 80 | 0.0 | 2.0 | 0.00 | 1.92 | 1.89 | 93 | 1014.9 |
| 20260905022021 | 70 | 118 | 1.0 | 4.0 | 0.00 | 1.92 | 1.89 | 93 | 1014.7 |
| 20260905021538 | 70 | 163 | 1.0 | 4.0 | 0.00 | 1.92 | 1.89 | 93 | 1014.9 |
| 20260905021018 | 70 | 157 | 1.0 | 2.0 | 0.00 | 1.92 | 1.89 | 93 | 1014.9 |
| 20260905020521 | 70 | 0 | 0.0 | 2.0 | 0.00 | 1.92 | 1.89 | 93 | 1015.2 |
| 20260905020040 | 70 | 0 | 0.0 | 2.0 | 0.00 | 1.92 | 1.89 | 93 | 1015.1 |
| 20260905015523 | 70 | 121 | 0.0 | 2.0 | 0.00 | 1.92 | 1.89 | 93 | 1015.2 |
| 20260905015020 | 70 | 141 | 1.0 | 2.0 | 0.00 | 1.92 | 1.89 | 92 | 1015.0 |
| 20260905014540 | 70 | 0 | 0.0 | 2.0 | 0.00 | 1.92 | 1.89 | 92 | 1015.2 |
| 20260905014021 | 70 | 0 | 0.0 | 2.0 | 0.00 | 1.92 | 1.89 | 92 | 1015.1 |
| 20260905013522 | 71 | 63 | 0.0 | 0.0 | 0.00 | 1.92 | 1.89 | 92 | 1015.2 |
| 20260905013105 | 71 | 0 | 0.0 | 0.0 | 0.00 | 1.92 | 1.89 | 91 | 1015.1 |
| 20260905012517 | 71 | 0 | 0.0 | 0.0 | 0.00 | 1.92 | 1.89 | 91 | 1015.0 |
| 20260905012017 | 71 | 0 | 0.0 | 0.0 | 0.00 | 1.92 | 1.89 | 91 | 1015.0 |
| 20260905011540 | 71 | 0 | 0.0 | 0.0 | 0.00 | 1.92 | 1.89 | 90 | 1015.0 |
| 20260905011024 | 72 | 0 | 0.0 | 2.0 | 0.00 | 1.92 | 1.89 | 91 | 1014.8 |
| 20260905010519 | 71 | 0 | 0.0 | 2.0 | 0.00 | 1.92 | 1.89 | 90 | 1014.7 |
| 20260905010045 | 72 | 60 | 0.0 | 2.0 | 0.00 | 1.92 | 1.89 | 90 | 1014.5 |
| 20260905005519 | 72 | 76 | 0.0 | 2.0 | 0.00 | 1.92 | 1.89 | 90 | 1014.4 |
| 20260905005019 | 72 | 0 | 0.0 | 2.0 | 0.00 | 1.92 | 1.89 | 89 | 1014.3 |
| 20260905004556 | 72 | 0 | 0.0 | 2.0 | 0.00 | 1.92 | 1.89 | 89 | 1014.2 |
| 20260905004019 | 72 | 85 | 0.0 | 2.0 | 0.00 | 1.92 | 1.89 | 89 | 1014.3 |
| 20260905003521 | 72 | 61 | 1.0 | 2.0 | 0.00 | 1.92 | 1.89 | 89 | 1014.3 |
| 20260905003043 | 72 | 40 | 1.0 | 2.0 | 0.00 | 1.92 | 1.89 | 88 | 1014.4 |
| 20260905002519 | 73 | 71 | 0.0 | 2.0 | 0.00 | 1.92 | 1.89 | 88 | 1014.4 |
| 20260905002022 | 73 | 62 | 1.0 | 2.0 | 0.00 | 1.92 | 1.89 | 88 | 1014.5 |
| 20260905001546 | 73 | 45 | 1.0 | 2.0 | 0.00 | 1.92 | 1.89 | 87 | 1014.6 |
| 20260905001022 | 73 | 79 | 0.0 | 2.0 | 0.00 | 1.92 | 1.89 | 87 | 1014.4 |
| 20260905000523 | 73 | 54 | 0.0 | 2.0 | 0.00 | 1.92 | 1.89 | 87 | 1014.4 |
| 20260905000048 | 73 | 59 | 1.0 | 2.0 | 0.00 | 1.92 | 1.89 | 87 | 1014.4 |
| 20260904235520 | 73 | 49 | 1.0 | 2.0 | 0.00 | 1.92 | 1.89 | 87 | 1014.4 |
| 20260904235019 | 74 | 46 | 0.0 | 2.0 | 0.00 | 1.92 | 1.89 | 86 | 1014.4 |